Flag Weather past 2 weeks in Wertheim, Baden-Württemberg, Germany

Now
36 °F

Overcast.


Feels Like: 31 °F
Forecast: 32 / 41 °F
Wind: 6 mph from Southeast

Location: Wuerzburg

Current Time: Nov 29, 2014 at 2:40:04 AM

Latest Report: Nov 29, 2014 at 2:00 AM


Visibility: 5 mi

Pressure: 30.01 "Hg

Humidity: 91%

Dew point: 34 °F

Location of WertheimLocation

Historic Weather in Wertheim — Graph

°F

Wertheim temperature yesterday

Maximum temperature yesterday: 39 °F (at 2:00 AM)
Minimum temperature yesterday: 36 °F (at 11:00 PM)
Average temperature yesterday: 38 °F

Past Weeks' High & Low Weather Summary

 TemperatureHumidityPressure
High53 °F (Nov 15, 1:00 PM)100% (Nov 16, 7:00 AM)30.35 "Hg (Nov 16, 7:00 AM)
Low31 °F (Nov 25, 7:00 AM)69% (Nov 21, 12:00 PM)29.47 "Hg (Nov 16, 4:00 AM)
Average42 °F91%30.01 "Hg
* Reported Nov 14 1:00 AM — Nov 29 1:00 AM, Wertheim, Weather by CustomWeather, © 2014

Note: Actual official high and low records may vary slightly from our data, if they occured in-between our weather recording intervals... More about our weather records

Advertising

Wertheim weather history for previous 24 hours

 ConditionsComfort  
Time TempWeatherWind HumidityBarometerVisibility
1:00 AM
Nov 29
36 °FFog.6 mph91%30.01 "Hg4 mi
12:00 AM36 °FFog.7 mph91%30.00 "Hg4 mi
11:00 PM
Nov 28
36 °FOvercast.6 mph90%30.00 "Hg5 mi
10:00 PM37 °FFog.5 mph90%29.99 "Hg4 mi
9:00 PM37 °FOvercast.5 mph90%29.97 "Hg7 mi
8:00 PM37 °FOvercast.7 mph89%29.97 "Hg7 mi
7:00 PM37 °FOvercast.5 mph90%29.97 "Hg7 mi
6:00 PM37 °FOvercast.6 mph89%29.95 "Hg6 mi
5:00 PM37 °FOvercast.6 mph90%29.94 "Hg7 mi
4:00 PM37 °FOvercast.6 mph89%29.93 "Hg6 mi
3:00 PM38 °FOvercast.7 mph89%29.92 "Hg6 mi
2:00 PM37 °FLow clouds.7 mph89%29.92 "Hg6 mi
1:00 PM38 °FLow clouds.7 mph89%29.93 "Hg6 mi
12:00 PM38 °FLow clouds.7 mph89%29.94 "Hg6 mi
11:00 AM37 °FLow clouds.6 mph91%29.95 "Hg6 mi
10:00 AM37 °FLow clouds.8 mph91%29.94 "Hg5 mi
9:00 AM37 °FLow clouds.6 mph91%29.94 "Hg5 mi
8:00 AM37 °FLow clouds.7 mph90%29.93 "Hg5 mi
7:00 AM37 °FFog.6 mph91%29.91 "Hg4 mi
6:00 AM38 °FFog.7 mph89%29.90 "Hg4 mi
5:00 AM38 °FFog.7 mph88%29.91 "Hg3 mi
4:00 AM39 °FFog.7 mph89%29.90 "Hg3 mi
3:00 AM39 °FFog.7 mph87%29.90 "Hg3 mi
2:00 AM39 °FFog.6 mph89%29.90 "Hg3 mi
Weather by CustomWeather, © 2014

See weather overviewHow to use our weather pages